Tracking 28794 objects as of 19-Apr-2024
HD Live streaming from Space Station
objects crossing your sky now

COSMOS 2251 DEB

Track COSMOS 2251 DEB now!
10-day predictions


NORAD ID: 39590
Int'l Code: 1993-036BUV
Perigee: 533.6 km
Apogee: 561.8 km
Inclination: 74.0 °
Period: 95.5 minutes
Semi major axis: 6918 km
RCS: 0.0016 m2 (small)
Launch date: June 16, 1993
Source: Commonwealth of Independent States (former USSR) (CIS)
Launch site: PLESETSK MISSILE AND SPACE COMPLEX (PKMTR)

Note: This is SATELLITE DEBRIS
Your satellite tracking list
Your tracking list is empty




NASA's NSSDC Master Catalog

Two Line Element Set (TLE):
1 39590U 93036BUV 24107.55553470  .00300379  00000-0  18350-1 0  9995
2 39590  74.0053  37.1779 0020343 204.3547 330.2791 15.08580624539054
Source of the keplerian elements: AFSPC